Change the Weather History Date:

Sunday, September 15, 2013

  Actual Average Record
Temperature  
Mean Temperature 88 °F -  
Max Temperature 98 °F 93 °F 107 °F (2000)
Min Temperature 77 °F 67 °F 59 °F (2005)
Cooling Degree Days 22    
Growing Degree Days 38 (Base 50)    
Moisture  
Dew Point 51 °F    
Average Humidity 30    
Maximum Humidity 41    
Minimum Humidity 18    
Precipitation  
Precipitation 0.00 in - - ()
Sea Level Pressure  
Sea Level Pressure 29.80 in    
Wind  
Wind Speed 8 mph (ENE)    
Max Wind Speed 15 mph    
Max Gust Speed -    
Visibility 10 miles    
Events      
Averages and records for this station are not official NWS values.
T = Trace of Precipitation, MM = Missing Value Source: NWS Daily Summary

Daily Weather History Graph

Daily Weather History Graph

Search for Another Location

Airport or City:

Trip Planner

Search our weather history database for the weather conditions in past years. The results will help you decide how hot, cold, wet, or windy it might be!

Date:

Astronomy

Sep. 15, 2013 Rise Set
Actual Time 6:22 AM PDT 6:46 PM PDT
Civil Twilight 5:57 AM PDT 7:12 PM PDT
Nautical Twilight 5:26 AM PDT 7:42 PM PDT
Astronomical Twilight 4:55 AM PDT 8:13 PM PDT
Moon 4:12 PM PDT (9/15) 2:11 AM PDT (9/15)
Length of Visible Light 13h 15m
Length of Day
12h 24m
Waxing Gibbous, 83% of the Moon is Illuminated
Sep 15
Waxing Gibbous
Sep 19
Full
Sep 26
Last Quarter
Oct 4
New
Oct 11
First Quarter

Hourly Weather History & Observations

Time (PDT) Temp. Heat Index Dew Point Humidity Pressure Visibility Wind Dir Wind Speed Gust Speed Precip Events Conditions
12:57 AM 82.4 °F - 51.8 °F 35% 29.76 in 10.0 mi East 9.2 mph - N/A   Clear
1:57 AM 80.6 °F - 51.8 °F 37% 29.76 in 10.0 mi East 8.1 mph - N/A   Clear
2:57 AM 80.6 °F - 51.8 °F 37% 29.77 in 10.0 mi East 9.2 mph - N/A   Clear
3:57 AM 80.6 °F - 51.8 °F 37% 29.78 in 10.0 mi East 11.5 mph - N/A   Clear
4:57 AM 78.8 °F - 51.8 °F 39% 29.80 in 10.0 mi ENE 10.4 mph - N/A   Clear
5:57 AM 77.0 °F - 51.8 °F 41% 29.80 in 10.0 mi East 11.5 mph - N/A   Clear
6:57 AM 78.8 °F - 51.8 °F 39% 29.82 in 10.0 mi NE 10.4 mph - N/A   Clear
7:57 AM 80.6 °F 80.3 °F 53.6 °F 39% 29.84 in 10.0 mi NE 6.9 mph - N/A   Clear
8:57 AM 84.2 °F 82.8 °F 53.6 °F 35% 29.85 in 10.0 mi Variable 2.3 mph - N/A   Clear
9:57 AM 87.8 °F 85.7 °F 53.6 °F 31% 29.85 in 10.0 mi ENE 15.0 mph - N/A   Clear
10:57 AM 89.6 °F - 51.8 °F 27% 29.86 in 10.0 mi NE 13.8 mph - N/A   Clear
11:57 AM 91.4 °F - 51.8 °F 26% 29.84 in 10.0 mi ESE 4.6 mph - N/A   Clear
12:57 PM 93.2 °F 90.8 °F 53.6 °F 26% 29.82 in 10.0 mi NE 2.3 mph - N/A   Clear
1:57 PM 95.0 °F - 51.8 °F 23% 29.81 in 10.0 mi Variable 2.3 mph - N/A   Clear
2:57 PM 95.0 °F - 50.0 °F 22% 29.78 in 10.0 mi Variable 1.2 mph - N/A   Clear
3:57 PM 96.8 °F - 50.0 °F 20% 29.76 in 10.0 mi Variable 1.2 mph - N/A   Clear
4:57 PM 98.6 °F - 48.2 °F 18% 29.75 in 10.0 mi ESE 9.2 mph - N/A   Clear
5:57 PM 96.8 °F - 50.0 °F 20% 29.75 in 10.0 mi ESE 8.1 mph - N/A   Clear
6:57 PM 95.0 °F - 50.0 °F 22% 29.75 in 10.0 mi ESE 10.4 mph - N/A   Clear
7:57 PM 93.2 °F - 50.0 °F 23% 29.77 in 10.0 mi ESE 6.9 mph - N/A   Clear
8:57 PM 89.6 °F - 51.8 °F 27% 29.78 in 10.0 mi NNW 6.9 mph - N/A   Clear
9:57 PM 87.8 °F - 50.0 °F 27% 29.80 in 10.0 mi NNE 5.8 mph - N/A   Clear
10:57 PM 84.2 °F - 50.0 °F 30% 29.81 in 10.0 mi NNE 2.3 mph - N/A   Clear
11:57 PM 82.4 °F - 50.0 °F 32% 29.81 in 10.0 mi NE 6.9 mph - N/A   Partly Cloudy